Theta_e
305 298 296 295 298 300 303 303 304 304 302 303 302 302 302 301 302 305 307 311 314 314 313 314 315 316 320 325 328 330 331 330 330 329 330 330 331 331 331 332 333 334 335 339 340 342 343 345 346 347 347 347 347 347 347 347 346 347 347 348 347 349 350 349 349 349 349 347 346 346 346 347 350 350 350 350 350 353 354 355 356 356 356 356 356 358
305 296 297 299 300 302 304 305 304 303 303 302 300 301 301 302 302 306 306 310 313 312 309 314 312 316 319 324 327 330 329 327 328 329 329 330 331 331 331 332 333 334 337 338 338 341 342 343 345 346 346 348 345 346 346 346 346 346 347 347 348 349 349 349 350 350 350 349 348 346 346 347 350 350 350 349 349 352 355 356 356 356 356 356 356 359
299 296 299 302 304 305 305 304 303 303 302 301 299 299 298 299 303 306 307 308 309 312 308 309 310 314 319 322 326 327 328 329 330 330 330 330 330 331 331 332 333 334 334 336 338 339 341 342 344 345 346 346 347 346 346 347 347 346 347 348 348 349 349 349 350 350 350 350 350 349 347 348 348 352 352 351 350 354 354 355 356 357 356 356 356 357
295 299 303 305 305 304 303 303 302 301 302 300 298 296 297 301 300 299 306 307 308 309 305 307 309 310 319 322 324 327 328 329 331 332 331 332 330 330 331 332 333 333 334 334 336 337 339 341 342 343 344 345 347 347 347 347 347 347 348 348 348 349 349 350 350 352 351 352 351 351 349 349 349 349 352 352 351 351 352 354 356 357 357 356 357 357
299 301 306 304 305 305 303 302 301 300 299 301 300 298 298 299 301 302 301 303 305 306 307 306 308 307 313 315 318 324 328 328 329 330 331 331 332 333 333 333 334 333 334 334 336 337 339 339 341 342 343 345 345 346 346 347 347 348 347 349 349 349 349 350 352 351 351 352 350 350 348 350 349 350 349 348 348 349 351 353 354 356 357 356 357 357
300 304 306 304 304 304 303 301 301 301 298 300 301 301 301 301 301 301 303 302 299 298 304 304 297 298 309 315 317 320 323 323 326 327 328 329 330 330 330 331 333 335 335 335 335 337 338 339 340 342 343 343 344 345 347 348 348 348 348 349 350 350 350 350 351 351 351 350 349 347 345 344 345 344 345 345 346 346 347 350 354 356 357 357 356 357
301 305 304 303 303 302 303 302 303 303 299 297 300 303 303 302 301 300 301 301 294 294 300 307 297 292 305 311 315 318 319 321 323 325 327 328 329 329 330 331 332 333 334 335 336 337 338 339 339 340 341 343 343 345 348 349 349 349 349 349 351 351 351 351 351 351 352 349 349 348 347 346 345 344 346 348 350 349 348 351 352 355 357 357 357 357
303 302 302 303 302 302 301 300 303 303 299 297 304 303 302 301 300 301 299 299 296 301 303 303 303 297 297 309 316 318 318 319 320 322 324 327 328 329 330 331 332 333 334 334 335 336 338 339 339 339 341 342 343 345 347 348 349 348 349 349 350 351 352 351 351 351 352 349 349 348 347 347 346 346 346 347 348 349 349 351 352 354 355 356 357 357
303 301 302 301 301 301 300 303 305 304 301 300 301 302 301 301 301 301 299 297 298 297 295 298 302 295 295 305 316 318 315 316 318 320 322 324 326 328 329 331 332 333 334 334 334 335 337 337 339 340 340 342 344 345 345 347 348 349 349 349 350 351 352 352 351 351 351 352 349 348 347 346 348 347 347 348 348 346 350 349 351 353 354 355 356 357
305 304 304 304 301 299 303 305 306 305 301 303 301 304 303 302 302 300 297 297 298 294 293 297 299 293 290 298 311 316 315 314 317 319 321 323 325 327 328 330 332 333 334 335 335 335 337 338 339 341 341 342 343 345 347 347 348 348 348 348 348 349 351 352 351 352 351 351 351 348 347 346 346 347 346 346 345 345 347 347 350 352 353 355 355 356
305 311 310 306 303 304 304 305 307 307 307 305 304 302 300 300 300 300 297 297 297 291 294 298 299 296 290 295 308 311 313 317 318 320 322 324 325 326 328 330 331 332 333 334 334 335 336 338 339 340 340 340 342 344 345 346 346 347 347 347 347 348 350 351 351 351 350 351 351 349 348 347 346 345 344 343 344 344 344 345 348 351 352 354 354 355
305 306 307 307 310 308 306 304 307 308 308 306 301 301 299 296 298 295 296 297 291 289 295 299 298 298 291 292 300 316 320 320 320 319 320 322 323 325 327 329 331 332 333 334 334 334 335 336 337 339 339 340 341 343 344 345 346 346 346 346 346 347 349 350 351 351 350 350 350 349 348 347 347 346 345 344 344 344 344 345 345 349 351 352 354 354
298 302 307 307 314 309 304 303 302 305 306 304 300 299 294 288 291 288 289 288 289 288 292 295 296 293 294 298 300 312 319 321 322 322 322 322 324 325 326 328 331 332 333 333 334 334 334 334 335 336 338 339 339 341 343 344 345 346 346 346 345 346 348 349 350 350 350 350 350 349 349 348 348 346 346 345 344 345 345 345 344 347 349 350 351 352
294 299 303 305 305 311 307 300 296 298 302 302 299 296 292 288 286 284 285 285 286 290 296 296 296 293 295 298 304 308 318 322 323 324 324 324 324 325 327 328 331 332 333 334 334 334 334 334 335 336 337 338 339 340 342 344 345 345 345 345 345 346 348 349 350 350 350 350 350 350 349 349 349 346 346 346 345 345 345 346 345 346 349 350 351 352
287 290 296 301 299 308 307 305 303 299 300 301 304 299 296 293 289 285 287 286 287 286 293 295 292 288 293 296 302 305 315 322 324 325 325 325 326 326 328 329 331 332 333 334 334 335 335 335 335 336 337 338 338 340 342 343 344 345 345 345 345 345 347 349 349 350 349 350 350 350 350 349 349 347 347 347 347 346 345 346 345 346 349 350 351 352
292 292 297 303 303 307 305 308 306 303 300 303 304 303 295 296 295 289 287 285 287 288 290 290 290 292 297 300 306 305 308 316 323 323 324 323 324 325 327 327 329 331 332 334 335 335 335 336 336 337 337 338 338 339 341 342 344 344 345 345 345 346 347 348 349 349 350 350 350 350 349 348 349 349 347 347 349 347 346 346 347 346 348 350 351 353
290 291 297 299 305 304 306 308 307 306 294 299 301 297 299 300 299 294 296 296 293 289 291 292 292 293 295 299 301 301 304 308 316 320 322 322 323 324 325 327 329 331 332 334 335 335 336 336 336 337 337 338 338 339 340 342 343 344 344 345 345 346 347 348 349 349 350 350 349 349 349 348 347 347 346 346 347 348 347 347 348 347 347 349 351 352
286 288 296 296 296 303 306 307 308 307 301 298 296 300 301 303 301 296 288 290 288 285 286 289 291 290 292 292 300 300 300 304 310 316 320 322 323 323 325 327 329 330 332 334 335 336 337 337 337 337 338 338 338 339 340 342 343 344 345 345 345 345 345 347 348 349 349 349 349 348 348 348 348 347 347 347 346 349 348 347 347 349 347 348 351 353
293 286 293 298 298 301 304 303 302 306 308 303 300 304 300 291 293 294 291 286 284 284 283 287 291 292 291 294 296 299 299 300 308 313 317 319 321 322 324 326 329 330 332 333 334 335 336 337 337 337 337 338 339 341 341 342 343 344 345 345 345 345 346 347 348 349 350 350 349 349 349 348 348 347 347 347 347 348 349 348 347 348 349 349 351 353
294 289 291 299 298 300 301 299 294 298 303 307 303 302 301 296 296 292 294 290 289 283 286 285 289 291 295 295 297 300 301 300 306 312 316 319 321 322 324 326 328 329 330 332 333 335 336 337 338 338 337 338 339 340 341 342 343 343 344 345 345 346 347 347 347 349 348 349 349 349 349 349 348 348 347 347 347 346 348 350 349 348 349 350 352 352
291 296 285 294 299 300 293 296 296 298 296 298 298 297 298 299 297 298 294 291 290 283 282 283 286 289 293 298 300 301 301 302 305 312 317 319 321 323 324 326 328 329 330 332 333 335 336 337 338 338 339 339 340 341 342 342 342 343 344 344 345 345 345 346 347 348 348 348 348 348 347 347 348 348 348 347 348 347 347 349 351 350 350 351 351 353
290 291 286 291 291 291 294 300 299 299 299 298 298 297 299 296 292 291 290 294 291 290 283 283 286 290 295 303 303 302 303 303 303 312 317 320 322 323 324 326 328 329 331 332 334 335 336 337 338 339 339 339 339 340 341 343 343 343 343 344 345 345 345 346 347 347 348 348 348 347 347 347 348 348 348 347 347 348 348 348 349 351 351 349 351 353
294 293 290 286 289 292 297 301 303 303 303 302 300 298 300 298 294 292 287 289 293 292 294 290 287 293 300 302 304 304 305 306 304 309 315 319 322 323 325 327 329 330 331 332 334 335 336 337 337 338 338 339 339 340 341 342 343 343 344 344 345 345 345 347 347 348 349 348 347 347 347 348 347 348 347 347 347 348 348 349 349 351 351 351 351 353
302 290 285 287 290 294 297 300 301 303 303 300 300 300 299 298 298 298 295 291 293 291 292 289 289 292 297 303 304 305 305 305 305 308 313 318 321 324 325 326 328 329 331 333 334 336 336 337 337 337 337 338 339 340 341 342 343 344 345 345 346 345 346 346 347 348 348 348 348 348 347 347 348 347 347 347 348 348 349 350 350 351 352 352 352 351
288 290 286 282 284 290 295 299 298 301 301 298 296 298 300 302 301 297 295 293 294 291 294 288 287 294 298 310 308 307 306 305 305 305 312 315 320 323 325 326 328 329 330 331 332 334 335 336 336 337 337 338 339 340 341 342 343 344 345 346 346 347 347 347 348 348 348 348 348 348 347 347 347 347 347 347 348 348 349 350 350 351 352 353 353 352
291 290 286 280 278 281 284 284 285 287 290 294 297 299 300 299 299 295 293 292 290 292 293 290 292 296 298 300 301 301 303 305 306 304 307 313 319 323 325 326 327 329 329 330 332 333 334 335 337 337 337 338 339 340 342 343 344 345 346 347 348 348 348 348 349 349 348 348 348 348 347 347 347 347 347 348 348 348 349 350 350 350 351 352 353 353
292 292 289 286 283 282 285 286 292 294 291 289 292 294 295 298 299 299 294 290 291 289 292 294 296 296 299 302 302 303 302 302 303 302 305 310 318 324 325 326 327 328 329 330 332 333 334 335 336 337 338 338 339 340 342 343 344 345 346 347 349 349 349 350 349 349 349 349 348 348 348 348 348 348 348 349 349 349 349 349 350 351 350 352 352 353
293 287 288 289 288 289 290 291 292 293 289 290 290 291 295 297 299 297 296 294 294 291 289 294 296 296 299 302 302 302 301 302 301 302 306 312 319 323 325 326 335 328 329 330 332 332 333 334 336 336 337 338 339 339 341 343 344 345 346 347 349 350 351 351 351 350 349 349 348 348 348 349 349 349 349 349 350 349 349 350 350 350 351 351 350 351
289 285 290 290 289 291 292 292 293 292 292 291 293 293 295 299 299 296 297 296 297 295 293 295 296 296 300 302 304 302 302 305 304 304 309 315 321 323 324 325 326 327 328 329 331 332 333 334 335 336 337 338 339 339 340 342 343 345 347 348 350 351 351 352 351 350 350 349 349 349 349 350 350 350 350 350 349 349 349 350 350 350 350 350 350 351
290 285 289 290 288 289 290 291 292 291 292 295 296 297 297 299 300 300 298 297 299 297 298 298 297 298 302 303 303 304 303 305 307 308 309 315 319 322 323 324 326 327 328 329 330 332 333 334 335 336 337 338 338 338 339 341 342 344 345 347 350 351 352 353 352 351 350 350 350 350 350 350 351 350 350 350 349 349 349 349 350 350 350 350 350 350
290 286 293 289 286 287 289 292 294 292 293 294 298 301 302 303 302 301 299 299 300 299 301 297 298 299 301 303 303 307 308 311 316 313 313 315 318 321 322 323 325 326 327 329 330 331 333 334 335 336 337 337 338 339 339 341 342 343 345 347 349 350 352 353 352 352 351 350 351 351 351 351 350 351 350 350 350 349 349 349 349 349 349 350 350 350
292 287 291 287 283 284 289 290 290 291 293 295 298 299 300 303 297 297 296 302 298 297 300 300 296 298 300 305 308 307 307 309 311 313 313 314 317 321 321 323 324 325 327 328 330 331 332 333 333 335 336 337 338 339 340 341 342 343 344 345 347 350 353 353 353 352 352 352 352 352 352 351 351 350 350 350 350 350 349 349 349 348 349 349 349 350
289 288 285 285 282 282 287 289 289 291 294 293 295 298 300 305 307 309 310 311 309 307 298 297 298 301 303 309 309 312 323 326 327 325 314 315 317 320 321 323 325 326 327 328 329 331 331 332 333 335 337 338 339 339 340 342 343 343 344 345 347 350 351 352 353 353 353 353 353 353 353 352 351 351 351 350 350 350 350 349 349 348 348 348 349 350
291 289 287 288 280 282 287 288 292 293 288 288 299 303 302 303 308 307 306 309 311 311 305 305 306 310 307 307 313 322 327 327 326 329 329 317 315 317 320 322 324 326 327 328 329 330 331 333 334 336 337 338 339 340 341 344 344 345 346 347 348 349 350 351 352 353 353 354 353 354 353 353 352 351 351 352 351 351 350 349 349 349 349 349 349 349
289 289 286 286 282 280 286 289 291 287 290 301 304 305 305 305 305 310 310 311 311 312 312 312 309 311 321 326 326 328 329 330 333 334 335 336 331 323 323 326 323 323 324 326 327 328 329 331 333 335 336 338 340 340 341 343 345 346 347 348 348 349 350 351 352 352 353 353 354 354 354 353 353 352 352 352 352 351 350 350 350 349 349 349 349 348
288 288 288 286 285 286 286 284 284 289 300 304 305 303 305 305 304 305 309 311 312 312 312 311 314 318 328 328 329 329 330 333 335 336 337 341 341 336 335 336 335 333 332 330 330 330 330 331 333 335 336 339 342 341 342 343 347 347 347 349 349 349 350 351 351 352 353 353 354 354 354 354 353 353 353 352 352 351 350 350 350 349 350 350 350 350
291 290 288 283 287 279 284 282 283 294 297 303 298 299 300 298 300 299 300 308 312 312 312 312 315 317 317 323 325 329 329 334 331 332 337 339 342 343 343 343 344 343 343 342 342 342 342 342 341 344 348 344 344 344 344 347 349 349 349 349 349 349 350 350 351 352 353 354 355 355 355 355 354 353 353 352 352 351 351 350 350 350 351 349 349 349
293 287 289 284 284 287 281 281 283 289 287 294 298 301 304 305 305 305 303 308 314 314 314 315 316 317 318 321 321 321 323 328 324 327 333 337 340 342 344 344 345 346 346 347 347 348 349 349 351 352 349 349 348 347 349 350 351 350 349 349 350 349 349 350 351 353 354 355 356 356 356 356 355 354 353 353 351 351 351 352 352 351 352 350 349 348
294 293 291 286 284 285 283 280 280 282 290 296 297 301 305 307 306 306 305 305 313 313 313 315 317 318 319 321 324 326 326 322 322 326 332 336 338 340 340 343 345 346 346 346 348 348 349 350 351 352 352 352 351 350 350 351 351 351 350 351 350 351 350 350 351 352 354 355 357 357 357 357 356 355 354 353 352 352 352 351 352 352 352 352 351 350
291 290 290 285 283 284 283 282 280 289 284 295 300 303 306 308 309 305 298 300 310 313 313 315 316 318 320 323 326 327 326 321 322 327 334 336 338 338 337 338 340 343 344 345 346 346 348 350 349 348 348 349 349 350 351 349 351 352 351 351 351 351 350 351 352 353 354 356 357 358 358 358 357 356 355 354 354 353 353 353 352 352 351 351 351 351
288 290 289 283 284 285 286 284 287 291 299 301 303 305 308 311 310 300 293 304 313 312 312 314 316 319 321 322 324 321 324 327 329 332 334 335 336 336 338 338 339 342 344 344 345 350 345 346 346 345 345 346 349 351 352 353 352 351 350 349 348 350 351 352 353 354 354 355 356 357 358 358 358 357 357 356 355 355 354 354 352 352 351 351 351 351
288 289 291 289 283 282 283 282 283 291 300 303 306 309 311 307 297 295 307 315 314 312 311 312 314 317 321 321 323 324 326 330 332 332 332 332 333 334 336 337 339 340 342 347 350 347 343 343 343 343 343 345 347 350 352 352 351 349 348 345 344 346 349 350 352 353 352 353 354 355 357 358 358 359 358 358 357 355 354 354 354 352 351 351 351 350
289 285 284 283 288 287 287 285 287 283 297 307 307 309 308 300 301 310 313 313 314 310 309 311 312 315 319 321 323 324 325 326 327 328 329 330 331 332 333 335 336 337 339 340 342 345 342 340 339 340 340 343 344 346 348 350 350 348 345 344 344 348 350 352 350 350 352 352 353 354 356 357 357 358 359 358 358 356 354 354 353 353 352 351 350 349
295 287 286 288 294 286 288 286 286 295 300 310 308 300 307 308 312 313 313 309 312 310 309 310 311 314 318 321 321 322 323 323 324 326 326 328 329 331 332 334 335 337 339 341 342 342 342 339 338 338 339 341 342 343 344 346 347 348 345 342 345 347 350 350 351 349 350 351 352 354 355 356 357 358 359 359 358 357 355 354 354 353 353 352 350 349
295 292 293 286 294 292 291 294 297 302 308 310 310 309 311 313 315 314 312 311 310 309 312 311 310 312 314 319 321 321 321 322 322 324 324 324 326 328 329 331 333 334 336 337 340 342 340 338 337 337 338 339 340 342 343 343 344 345 343 343 347 350 351 351 349 348 349 349 350 352 355 356 357 357 358 358 358 356 355 354 355 353 353 352 351 350
299 299 298 295 294 296 302 302 303 302 307 307 310 311 311 312 314 314 311 308 309 310 311 311 312 311 311 316 319 319 320 321 322 322 323 323 324 326 328 329 331 333 335 337 338 340 338 338 337 337 337 337 339 341 343 342 342 342 339 342 346 348 351 354 349 346 348 348 349 351 354 355 356 357 357 358 358 358 357 356 355 354 354 353 352 352
297 299 297 292 293 290 289 300 299 299 303 306 307 308 308 310 309 313 312 310 309 309 310 312 313 312 311 312 314 318 318 320 320 321 322 322 322 323 325 326 327 329 331 332 336 339 336 336 336 336 337 336 335 337 340 340 341 340 340 344 346 349 351 353 352 351 349 347 348 349 352 354 355 356 357 357 358 358 358 357 357 355 353 354 353 352
290 298 296 293 292 290 292 296 300 300 304 307 306 304 304 306 307 309 310 312 312 311 312 312 314 312 311 309 309 313 318 320 319 319 320 320 321 322 323 324 325 327 329 331 334 337 334 334 333 334 334 334 333 334 335 337 337 339 340 342 345 347 349 351 352 350 347 345 346 350 352 353 362 360 357 354 353 354 355 356 358 356 355 354 354 354
294 297 288 292 290 293 295 299 296 298 301 304 305 306 307 306 306 306 309 309 312 311 312 312 311 311 311 310 310 309 312 317 319 319 319 319 320 321 322 324 325 325 327 329 331 335 333 333 334 330 333 332 332 333 334 334 336 339 339 342 344 345 348 349 350 346 347 347 347 349 354 354 359 356 343 327 321 312 311 314 319 338 351 345 346 356
293 289 292 291 287 287 288 293 294 290 290 295 300 303 304 306 306 305 306 306 309 311 312 310 309 311 311 311 311 309 307 312 318 318 318 318 319 320 322 324 324 325 326 328 330 330 333 336 333 331 331 330 331 333 334 333 335 338 340 341 342 344 346 345 344 341 342 345 346 347 351 352 349 342 335 331 326 320 316 310 302 304 320 330 320 315
291 292 291 288 287 287 293 295 296 295 294 295 297 300 302 305 305 304 303 305 307 312 313 311 308 309 309 310 314 310 308 308 314 318 317 318 319 321 321 323 324 324 326 327 328 328 330 332 336 334 332 330 331 332 332 333 333 336 339 341 341 342 342 342 342 340 341 342 343 345 347 345 341 337 334 333 331 329 327 325 318 301 300 306 307 303
Wind_Speed
6 10 13 17 19 19 15 12 9 6 4 2 5 6 8 6 7 4 5 6 3 7 13 13 10 9 12 16 18 18 17 16 15 17 17 17 16 16 17 18 18 18 19 17 17 19 19 19 17 16 15 15 15 15 15 15 15 15 15 14 14 12 12 11 10 10 10 10 9 8 9 11 9 8 8 7 6 6 6 7 7 7 7 6 6 5
9 10 14 19 15 10 9 6 6 7 9 7 3 4 7 7 10 8 6 2 3 5 7 12 7 11 14 16 18 17 18 18 18 18 19 20 18 18 19 19 19 18 11 13 14 17 18 17 18 16 15 15 17 15 16 17 17 16 15 15 14 12 12 13 13 11 11 11 11 12 12 10 9 8 9 8 7 7 6 7 7 7 7 7 7 6
11 15 21 16 5 5 5 6 7 11 10 6 7 4 4 8 2 7 8 5 3 5 8 4 8 11 15 17 16 19 21 20 20 23 24 21 20 17 18 19 18 15 15 15 17 17 18 20 20 17 16 16 18 17 18 17 16 16 15 14 13 12 13 13 13 11 11 10 9 9 8 10 7 6 7 6 6 5 6 7 7 7 7 7 6 6
8 16 18 6 7 5 5 6 8 8 8 9 7 6 10 2 2 6 11 4 4 6 2 4 8 8 13 13 18 21 22 18 20 22 20 21 23 22 23 22 21 20 18 20 20 21 19 19 19 17 16 17 16 16 16 16 18 15 14 14 14 14 13 12 13 13 11 10 7 6 4 5 6 5 4 5 6 6 6 7 7 6 6 7 7 7
14 3 7 7 10 12 10 7 9 8 10 9 9 8 9 6 8 9 2 3 2 4 2 1 1 1 8 9 10 15 18 17 17 17 15 16 19 22 19 17 18 22 21 20 19 18 18 19 20 20 18 16 17 17 17 17 16 13 17 16 16 14 14 13 13 14 10 8 6 5 3 3 3 2 4 4 4 7 7 6 6 8 6 7 7 7
12 12 9 13 11 12 11 9 12 9 9 10 12 12 11 8 9 7 2 3 3 6 2 2 3 4 7 14 18 15 12 14 14 17 19 19 17 11 12 18 17 17 16 19 22 23 22 21 18 18 18 18 17 17 17 17 17 16 15 15 15 13 13 13 14 13 11 11 10 9 8 8 7 7 6 8 9 8 8 10 7 6 7 7 6 6
10 6 6 14 13 10 13 12 10 10 10 8 14 13 13 10 9 5 1 1 4 6 6 3 7 5 3 14 16 14 16 20 14 18 21 18 15 16 17 17 18 19 17 16 17 18 19 19 19 19 19 20 19 18 16 16 17 17 16 16 15 14 13 13 13 14 12 11 10 12 12 12 12 11 9 10 10 9 6 4 6 7 6 7 7 6
7 10 7 8 13 14 12 13 11 13 9 14 9 7 7 9 11 11 3 4 6 2 6 3 3 4 2 10 15 18 19 20 18 18 19 17 16 18 18 18 18 19 19 18 20 20 20 20 21 22 22 19 20 17 16 16 16 18 17 16 16 13 13 12 13 14 13 12 12 12 12 11 11 13 13 12 10 6 6 6 6 6 6 7 7 7
10 12 14 13 10 12 16 17 12 13 13 5 3 6 6 8 11 10 4 4 3 3 10 7 1 3 4 7 13 16 17 19 20 20 19 19 20 20 20 20 20 20 20 19 18 21 22 22 21 20 20 20 18 16 17 17 16 16 16 17 16 15 14 13 15 15 15 13 13 12 11 11 10 10 7 4 4 5 6 6 5 6 6 6 7 7
9 9 12 13 9 12 10 8 9 11 12 5 3 6 5 4 6 4 5 5 3 3 13 12 4 4 6 5 10 11 17 20 21 21 20 22 22 21 20 20 20 18 16 17 20 20 21 20 20 19 19 17 17 16 16 16 15 15 15 16 17 16 14 14 16 16 16 15 12 12 11 13 10 7 5 5 6 6 6 7 7 6 6 6 6 6
1 8 11 11 14 8 4 6 10 11 10 3 4 1 3 6 6 1 5 4 1 10 14 15 8 5 7 6 12 12 16 18 17 15 15 17 18 18 19 21 19 18 18 18 19 18 19 19 19 18 18 18 17 15 16 16 16 16 16 16 17 18 14 15 16 16 17 15 13 13 13 13 12 9 7 7 7 6 5 7 7 7 7 7 7 6
7 2 7 6 10 5 6 5 7 11 11 6 4 8 1 6 1 0 1 3 8 13 9 14 10 9 9 6 7 15 20 22 21 21 20 19 21 20 18 18 19 19 19 19 16 16 17 16 17 17 18 18 19 17 17 16 16 16 16 16 18 17 16 15 15 16 16 15 15 14 14 13 12 10 9 10 11 10 10 9 8 6 6 6 6 6
8 12 2 2 8 15 8 9 7 10 10 11 5 6 10 2 3 8 4 9 12 10 4 5 5 4 14 10 8 18 19 21 22 20 23 24 24 22 21 21 19 19 18 16 17 16 16 18 19 19 19 17 18 18 19 18 17 16 16 18 19 18 17 16 16 16 16 15 15 14 14 13 11 10 10 10 10 9 9 8 7 6 7 6 6 7
6 2 9 10 4 10 10 12 7 8 10 12 12 9 9 8 8 9 6 1 2 3 8 7 5 10 1 8 16 17 22 21 21 21 20 24 24 25 22 20 18 17 17 18 18 18 18 18 18 19 19 18 17 18 18 18 17 16 16 18 19 19 18 16 16 17 16 17 16 15 14 13 11 11 11 10 10 9 8 8 9 9 9 8 10 9
8 12 14 12 11 8 13 12 12 7 10 12 10 11 12 8 5 9 6 11 9 5 7 5 6 6 10 7 6 16 20 23 22 23 19 19 24 23 22 20 20 19 19 18 17 18 19 19 19 19 19 19 18 19 18 17 17 16 16 17 19 18 18 17 18 16 17 16 16 14 13 12 11 11 10 10 9 9 9 8 8 8 8 9 9 9
14 10 5 15 5 11 12 13 10 9 7 10 11 8 7 18 5 5 5 3 3 2 6 4 7 6 9 3 4 7 14 18 21 22 20 15 12 10 11 13 16 17 18 17 18 19 18 18 18 17 17 17 17 19 18 18 17 17 17 18 20 21 19 18 18 17 17 16 14 14 14 13 13 10 9 8 7 8 8 9 9 9 9 9 8 7
7 10 3 5 14 12 15 10 10 12 11 8 9 14 13 7 6 3 3 1 2 3 13 2 3 3 7 5 6 6 9 14 17 20 21 20 17 14 14 15 16 17 17 18 18 18 19 17 17 18 18 17 17 17 19 20 19 20 19 18 19 19 18 19 19 18 16 16 14 14 14 13 12 12 12 12 12 12 9 9 9 8 9 7 7 7
6 13 17 9 9 12 11 9 12 14 5 5 9 11 5 4 3 5 6 1 4 8 7 1 7 2 4 8 2 4 8 9 14 19 21 22 20 18 18 18 18 18 18 20 21 21 20 20 20 18 17 19 20 21 20 21 19 19 18 19 20 19 19 19 18 18 16 16 15 14 14 14 14 13 13 12 11 10 9 9 8 7 6 9 9 8
6 8 6 6 10 6 5 6 6 12 14 11 8 9 10 7 11 7 1 9 5 6 2 4 1 4 7 6 3 7 7 8 12 16 18 20 18 19 20 21 21 20 17 17 17 15 14 15 16 18 19 20 20 20 20 19 19 17 17 18 19 21 20 20 16 16 14 15 13 12 14 14 13 12 12 10 9 8 9 10 9 9 10 8 7 7
6 2 8 4 4 8 7 6 13 9 9 15 7 11 7 5 9 8 10 2 4 4 1 8 0 9 6 6 8 10 9 10 11 9 14 19 19 17 17 19 20 19 17 17 17 16 18 19 20 20 20 20 20 18 17 18 16 18 18 18 17 17 16 16 17 16 15 15 13 13 13 13 13 13 12 11 10 10 11 10 10 10 9 10 8 8
4 2 5 8 12 6 5 5 11 13 10 10 10 8 6 5 1 5 1 5 6 4 3 2 6 5 6 7 8 10 9 8 13 14 14 16 18 18 19 19 18 19 19 18 18 19 19 19 18 18 17 17 16 15 15 16 18 18 16 17 18 18 17 17 17 16 15 14 14 14 15 14 13 14 12 11 11 11 11 9 9 9 9 5 8 7
3 2 5 9 10 4 7 6 1 1 4 7 10 11 10 9 4 12 10 1 3 2 3 3 9 5 10 5 9 9 9 8 10 15 15 16 17 17 17 19 19 18 19 20 20 20 19 18 18 16 14 12 13 14 17 16 16 17 18 17 17 17 16 17 16 15 15 13 13 15 15 15 13 13 12 12 12 12 11 10 10 9 7 8 8 8
3 4 4 10 7 9 16 17 13 15 13 11 7 10 10 6 5 6 9 7 4 6 5 3 1 11 7 7 10 12 11 13 10 13 14 15 18 18 17 19 19 21 21 20 20 19 18 18 18 17 18 18 18 17 18 17 17 17 18 17 16 17 17 17 17 15 14 14 14 15 14 14 13 13 13 14 12 13 12 11 10 8 9 9 8 8
10 1 7 8 9 12 17 15 15 13 7 6 7 7 8 11 11 12 8 5 7 2 7 5 4 12 6 4 7 7 9 10 7 13 15 13 13 16 19 18 18 17 18 19 18 18 17 16 15 13 14 14 14 15 17 17 16 16 17 17 16 18 18 16 15 14 14 14 15 15 14 13 12 13 13 14 12 13 12 12 10 9 10 10 8 9
5 2 2 6 6 8 10 2 3 5 3 3 6 7 8 12 13 3 5 2 7 8 8 6 11 14 5 2 1 1 4 4 5 9 14 15 13 15 16 15 16 18 18 17 17 16 14 13 15 15 17 17 17 16 16 16 17 16 16 16 16 17 17 16 14 14 15 15 15 14 14 14 13 14 14 14 12 14 13 12 11 10 11 10 10 10
3 3 2 2 3 8 11 10 2 7 8 11 7 6 10 12 13 5 8 3 9 5 7 7 11 14 8 6 8 6 5 6 7 6 11 14 16 16 15 15 14 16 16 18 17 16 16 17 16 16 16 16 16 16 16 16 16 16 15 17 16 15 15 15 14 14 14 14 15 14 15 14 14 15 15 15 14 15 14 13 12 11 10 11 12 11
1 3 4 5 6 9 7 8 8 7 10 6 13 15 17 15 10 11 5 6 11 4 8 10 11 10 15 14 13 15 4 7 8 7 14 14 13 16 16 16 15 15 16 17 17 17 16 16 18 18 18 18 17 16 15 15 16 15 15 16 16 15 15 15 15 15 15 15 15 14 15 15 15 15 15 15 14 13 13 13 13 13 12 12 12 12
1 3 6 8 10 12 12 14 17 14 16 17 14 18 17 12 11 12 14 13 7 9 10 4 5 9 17 18 15 16 7 6 6 6 12 13 14 15 15 15 15 16 14 14 14 16 18 19 18 17 17 17 16 16 14 14 15 15 15 16 16 15 15 13 15 15 15 15 15 15 16 15 15 15 14 13 12 12 13 13 13 13 13 12 13 13
1 3 3 4 9 10 14 19 17 14 14 14 15 16 18 17 10 11 17 7 11 10 12 4 6 8 18 18 19 10 5 8 9 11 15 17 15 13 12 14 15 16 15 15 16 17 18 18 17 17 17 18 17 16 16 14 14 13 13 13 14 14 16 15 15 16 16 15 16 15 14 13 12 12 12 13 12 13 13 13 13 12 12 12 12 11
2 4 5 6 12 14 16 13 13 13 12 12 14 15 17 17 16 14 12 7 15 8 8 8 9 15 17 17 12 9 5 8 5 4 3 2 9 13 13 14 17 16 16 18 17 18 18 19 18 18 18 17 18 17 16 15 15 15 16 16 16 16 15 15 16 16 16 16 16 14 14 14 12 12 13 13 14 14 13 12 12 12 12 13 12 12
3 4 7 8 8 14 12 8 6 8 9 11 8 8 10 12 15 14 10 7 8 3 1 5 8 13 10 2 4 3 3 3 1 4 11 13 11 12 13 14 14 15 16 18 17 18 18 18 17 17 17 17 18 18 18 17 16 15 16 15 15 16 15 15 15 15 16 16 14 14 13 12 13 12 13 14 13 13 13 13 12 12 12 12 12 13
2 3 3 3 7 9 6 7 16 15 12 9 4 16 19 15 3 5 4 3 5 7 3 2 4 10 8 4 1 3 5 5 2 1 6 7 9 12 14 14 14 14 15 16 17 17 16 15 13 14 16 17 18 18 16 15 14 15 16 15 15 15 14 14 15 15 15 14 14 14 14 13 13 13 13 13 13 13 13 12 13 13 12 12 13 12
2 2 4 4 6 8 6 10 16 16 9 3 6 12 13 11 4 12 8 11 8 4 4 9 10 2 5 5 1 4 6 6 6 4 2 4 4 10 15 15 16 16 16 16 16 16 15 15 16 17 17 16 17 17 17 17 16 17 16 15 15 13 14 14 14 14 14 14 14 14 13 13 14 14 13 14 14 13 13 13 13 14 13 14 12 11
4 3 2 2 2 7 13 15 12 1 1 2 2 10 13 10 14 14 7 8 10 6 2 4 8 8 4 4 1 6 8 6 3 5 3 1 4 5 7 9 12 14 15 16 16 17 16 14 13 14 16 17 17 18 17 16 18 17 15 14 12 14 14 14 14 14 15 15 14 14 14 14 14 14 14 14 14 13 13 14 14 14 13 12 11 13
4 3 3 2 2 6 10 13 3 4 7 1 6 9 13 9 9 4 11 11 13 15 15 10 6 2 4 5 2 6 10 8 12 15 14 11 4 1 3 4 5 6 8 10 10 10 10 13 13 12 11 12 13 11 9 9 9 6 8 10 12 13 13 14 14 14 14 14 14 14 13 14 14 14 14 14 14 14 14 14 13 13 12 12 13 14
4 3 3 1 3 4 4 5 3 8 4 4 3 7 15 3 6 9 4 17 16 15 12 9 9 5 5 4 3 1 5 12 17 18 15 14 11 5 5 4 5 7 7 6 8 7 8 8 10 12 13 9 9 9 10 10 9 10 11 10 12 12 13 13 14 14 13 13 13 14 14 14 14 14 14 14 14 14 14 14 14 14 13 12 12 12
8 4 2 3 2 2 3 6 8 7 8 6 4 10 13 10 13 11 6 9 13 13 13 11 11 10 7 1 2 2 4 11 18 14 15 14 13 10 10 7 8 10 9 7 9 8 7 8 8 7 6 6 7 8 8 8 9 9 9 10 11 11 11 12 13 13 13 14 14 14 14 14 15 15 14 14 14 15 14 14 14 13 11 12 13 13
8 6 3 2 2 0 4 6 6 1 5 2 7 12 5 6 9 8 5 5 13 17 15 13 11 11 9 9 8 7 10 14 13 10 12 13 11 11 12 11 11 11 11 12 11 11 11 10 9 8 10 9 7 8 9 9 10 10 10 11 10 11 11 12 13 13 13 13 13 14 14 14 15 15 15 14 15 15 14 14 13 13 12 14 14 14
9 9 7 4 4 5 3 1 2 1 1 3 16 18 17 6 9 6 4 7 10 16 16 13 12 12 9 8 8 3 5 13 4 7 8 9 11 11 12 11 11 12 12 11 13 14 13 12 12 11 10 9 8 2 7 12 14 12 12 11 11 11 12 13 13 13 13 13 14 14 14 15 15 15 15 15 15 14 15 14 14 14 13 13 13 13
9 6 5 4 5 5 3 3 3 2 2 11 18 18 19 15 7 3 2 5 11 16 15 14 12 13 12 12 8 9 11 15 5 5 7 8 8 10 11 12 11 11 12 11 12 12 12 12 15 14 13 10 6 3 5 7 9 11 11 11 11 12 13 13 13 14 13 14 14 14 14 13 14 14 14 15 14 13 14 13 12 12 12 12 11 11
3 4 4 7 5 5 5 4 3 2 2 10 17 20 18 15 4 3 7 2 10 12 13 12 13 13 12 11 8 11 10 9 7 7 8 9 11 12 12 11 10 9 11 11 10 10 14 14 14 13 11 7 6 6 5 7 7 5 5 6 6 10 9 5 5 6 8 9 10 11 12 12 13 15 14 14 14 14 13 12 12 12 12 12 11 11
1 2 3 2 2 4 4 3 5 2 2 10 17 16 16 5 7 6 5 8 9 10 11 13 13 14 12 10 8 9 9 10 11 11 12 12 12 10 11 11 11 12 10 9 10 10 12 12 13 13 12 10 10 9 7 8 9 6 6 5 2 1 2 2 4 5 5 7 9 10 11 12 12 13 13 13 12 11 11 11 11 11 12 11 10 12
2 3 1 1 2 1 0 2 2 2 2 11 18 7 18 8 5 4 5 6 8 9 11 12 13 13 12 10 9 9 11 13 12 12 12 12 12 12 11 12 11 11 10 9 11 8 11 12 13 12 10 9 9 9 8 10 10 7 6 7 2 3 3 3 4 5 8 9 10 10 10 10 12 11 10 10 12 12 12 11 11 11 10 11 10 11
6 1 3 3 1 2 3 4 3 5 7 8 10 8 5 5 3 6 6 7 10 8 9 9 12 12 12 11 10 11 13 13 13 11 12 12 12 11 12 12 11 10 10 9 8 7 9 12 11 11 9 8 8 8 8 10 8 6 6 5 3 3 2 3 3 5 6 8 10 11 11 11 11 11 10 11 11 11 12 11 11 10 10 10 10 10
6 4 3 4 5 2 2 4 5 4 2 5 6 7 8 9 8 9 9 8 9 9 9 7 11 12 13 12 12 12 12 12 10 10 11 11 11 11 11 11 11 10 9 8 8 8 8 10 10 10 10 8 9 8 8 7 9 7 8 5 4 4 4 3 1 4 5 6 7 9 9 10 10 11 10 10 10 10 10 10 9 9 9 8 9 9
5 4 6 3 4 11 1 5 2 5 4 5 6 7 8 9 9 9 10 10 10 10 9 8 10 11 12 13 11 11 11 9 11 11 11 11 11 11 11 11 12 11 11 9 9 8 7 8 9 10 10 10 8 8 6 6 7 7 3 3 4 4 4 4 1 3 4 4 4 6 6 8 9 9 10 10 9 11 10 10 10 10 9 9 9 9
5 7 5 4 9 7 0 6 7 8 3 4 7 9 9 9 9 9 6 6 10 12 12 11 10 10 11 12 12 11 13 12 10 8 7 9 11 10 10 10 9 9 9 10 8 6 7 7 8 9 9 9 6 6 6 5 5 4 3 4 4 4 4 4 2 2 2 4 4 4 4 6 7 7 7 8 8 8 8 8 9 9 8 9 9 8
4 8 2 7 9 3 4 7 4 5 1 6 7 6 7 9 12 10 9 7 7 10 10 10 10 10 10 11 11 9 10 11 12 12 10 7 7 8 9 9 10 10 10 8 8 6 5 6 6 6 6 6 4 4 4 4 4 4 4 3 3 4 3 3 1 1 2 2 3 5 6 6 9 9 7 4 3 4 4 5 6 8 8 9 9 8
7 7 4 10 7 8 9 4 8 8 0 8 8 8 7 8 9 13 12 12 8 9 11 12 11 8 8 9 9 9 9 10 9 9 10 10 10 9 9 9 8 7 7 9 8 7 5 3 4 4 5 4 3 4 4 4 4 4 4 4 3 3 4 4 3 1 1 1 3 4 4 5 6 6 6 6 7 7 6 4 2 1 3 2 1 6
6 5 9 10 7 6 2 2 11 7 8 6 2 8 7 8 9 11 13 13 11 7 9 10 13 13 10 7 7 8 8 8 8 7 8 8 8 8 10 10 9 8 8 6 6 7 7 5 3 4 4 4 4 4 5 4 4 4 3 3 3 3 5 3 4 3 2 1 2 3 4 5 5 6 7 7 8 8 8 10 10 6 1 0 6 7
7 9 9 8 6 10 9 11 10 11 15 16 16 5 7 7 8 8 11 12 13 8 6 8 11 13 14 12 7 7 8 7 8 6 6 6 8 8 5 7 10 10 9 8 7 9 7 6 2 1 2 2 2 4 3 4 3 4 5 4 3 3 3 3 3 2 1 1 2 3 5 5 6 6 6 7 7 7 8 6 10 15 13 8 6 8
Wind_Direction
155 188 191 201 210 210 210 208 210 230 265 179 173 188 229 227 260 249 247 243 204 184 204 209 204 178 189 182 182 182 181 188 179 179 184 188 186 187 192 194 196 195 196 188 182 182 185 184 183 183 181 182 182 182 180 180 183 183 183 180 186 184 178 180 180 183 182 185 190 197 198 203 203 202 204 204 200 193 196 194 191 190 191 190 191 191
170 204 218 218 211 203 209 194 177 211 234 249 222 200 233 218 239 242 248 266 227 189 233 218 187 181 192 190 186 179 178 189 187 187 190 190 187 190 192 195 198 201 193 184 186 184 183 184 184 182 183 182 182 185 182 184 185 185 182 185 185 178 182 186 187 186 188 190 192 190 195 195 193 192 196 202 199 195 193 193 192 192 190 188 190 191
197 211 220 212 161 176 195 178 184 198 221 232 230 225 246 252 256 291 268 253 264 216 245 169 191 192 198 193 186 177 188 195 190 188 191 186 187 191 194 196 196 195 194 190 193 187 184 185 183 184 184 185 186 184 185 186 183 184 185 186 181 184 185 189 189 188 193 193 193 192 195 192 190 197 197 194 185 184 189 194 193 192 190 186 190 192
201 230 227 164 170 168 194 194 183 200 213 220 223 217 231 227 156 253 258 258 212 195 231 193 195 201 209 194 185 192 191 195 196 196 192 187 186 190 193 191 192 194 191 193 192 190 185 184 184 185 186 186 186 185 186 186 186 185 188 184 184 186 187 188 191 195 195 193 192 197 189 196 193 187 180 175 168 184 184 197 194 195 189 189 189 191
207 359 154 148 172 191 207 200 190 195 220 223 217 221 235 224 223 211 260 351 308 287 251 312 340 307 205 187 205 208 201 194 195 198 201 203 199 195 192 191 194 194 192 192 192 191 186 184 187 188 186 183 187 188 187 186 187 188 188 186 186 185 186 189 191 192 186 183 173 166 139 146 146 94 164 167 185 191 193 189 193 202 189 190 192 191
237 246 145 176 189 191 202 212 210 193 226 232 231 218 224 225 243 251 335 340 348 318 305 146 320 268 204 198 195 202 198 208 200 193 199 204 204 192 189 198 198 205 200 194 191 190 190 189 184 185 184 187 190 190 189 186 187 187 188 187 187 186 187 188 189 186 182 187 183 171 168 173 185 191 180 196 198 194 192 200 192 187 189 187 193 192
230 193 180 183 188 197 202 215 211 191 221 215 230 209 219 227 242 247 124 182 263 246 275 156 200 265 237 198 206 198 194 205 197 201 205 202 198 193 198 195 195 197 199 202 202 197 192 189 185 186 187 189 190 192 185 185 187 187 187 187 185 186 187 187 185 183 186 188 188 188 187 185 186 190 201 203 204 196 193 165 175 190 187 187 188 194
192 198 175 201 189 195 203 216 207 192 195 231 217 210 205 224 241 242 167 205 251 265 278 282 163 227 268 236 209 194 196 205 203 204 205 203 200 202 199 198 197 197 197 196 198 197 195 190 189 189 190 189 191 186 183 186 187 187 186 186 186 186 186 185 182 183 186 189 190 191 193 194 196 196 198 196 199 182 161 176 184 176 189 188 191 190
189 199 190 194 201 198 207 209 191 189 202 234 144 184 204 210 232 246 156 220 238 334 277 277 160 275 231 234 220 195 199 209 206 205 202 203 203 204 200 199 200 199 197 195 196 196 194 194 193 191 190 193 187 182 184 187 187 187 186 186 186 186 184 183 182 184 189 192 192 194 192 196 204 203 201 184 168 164 167 176 173 179 187 188 192 192
218 194 188 200 199 214 217 208 192 190 217 224 142 177 215 210 236 216 163 190 230 203 258 256 192 225 266 257 208 207 206 205 210 207 204 202 203 201 200 202 201 198 199 202 202 197 196 194 193 192 191 187 189 185 184 185 185 186 186 187 186 188 186 183 183 185 189 192 190 194 198 200 198 191 167 153 176 180 172 181 184 184 180 188 188 194
218 180 174 195 211 209 188 209 196 200 218 107 152 159 223 230 236 257 177 172 200 239 239 251 232 164 263 238 192 191 214 210 210 211 209 207 208 206 203 200 197 194 198 202 201 198 198 196 192 188 187 189 188 186 183 184 185 185 186 186 187 189 186 184 185 185 189 190 192 198 199 200 195 185 168 170 188 186 181 190 189 184 188 181 191 187
239 274 189 203 200 190 157 211 207 207 207 190 174 205 330 305 6 272 258 152 215 244 234 246 233 179 232 271 239 205 206 209 205 203 201 202 205 204 203 202 200 198 198 200 196 196 195 193 194 190 191 187 187 184 185 186 184 184 186 185 187 189 187 185 186 187 189 189 194 198 199 200 198 185 184 189 194 194 197 197 192 187 170 184 183 186
225 227 224 262 199 191 175 201 210 204 201 201 189 161 197 249 144 234 130 210 215 221 247 230 172 231 231 234 199 208 213 213 212 205 199 201 204 204 202 198 196 197 196 193 196 194 193 193 191 192 192 187 186 188 186 186 184 184 185 185 186 189 188 187 186 188 189 190 195 196 197 199 194 192 193 196 199 197 199 195 188 176 188 177 178 193
234 257 223 231 237 201 185 193 177 203 200 193 197 183 182 198 208 220 217 333 264 267 246 230 177 235 165 249 218 191 207 212 215 219 209 201 202 203 198 195 194 194 192 194 194 195 196 194 192 190 189 190 188 187 186 186 185 184 186 186 187 189 187 187 187 189 189 193 195 195 196 195 192 194 195 198 200 199 199 193 194 191 190 186 193 190
202 212 224 198 216 165 198 205 184 188 182 200 195 180 203 202 188 205 193 210 208 191 239 188 150 227 165 234 194 191 199 205 211 215 214 210 209 203 197 190 189 189 194 193 191 196 198 193 188 189 191 189 188 186 185 186 186 183 185 186 188 188 189 187 188 189 191 194 195 195 195 193 193 195 196 201 199 197 196 197 197 199 192 193 198 195
226 233 219 200 227 169 206 201 175 173 193 203 193 189 188 218 118 194 200 138 176 203 250 214 200 186 188 242 255 190 189 201 205 212 210 212 213 205 203 194 192 194 194 191 195 199 198 192 190 190 189 189 187 185 185 187 185 186 187 187 189 188 187 189 189 190 192 194 194 193 192 193 194 196 196 198 198 200 198 198 198 199 199 200 194 196
331 236 67 325 213 198 204 184 196 167 206 187 174 207 213 89 169 235 293 268 105 110 237 115 276 287 306 328 232 138 149 194 205 208 206 207 201 186 193 197 199 197 194 193 195 197 196 191 192 191 188 187 186 185 188 188 186 187 186 187 189 190 188 190 190 190 191 192 191 193 193 191 193 195 195 197 198 198 196 198 202 199 202 196 190 192
12 284 301 282 289 232 214 183 195 196 150 115 197 210 86 122 128 187 215 285 200 205 250 95 207 246 157 231 285 183 146 193 192 207 208 208 200 184 193 195 197 197 197 195 196 197 194 191 191 189 189 188 187 188 188 188 187 187 186 187 188 188 190 192 190 190 190 190 192 193 193 194 194 196 200 200 199 195 192 200 201 198 191 200 198 191
335 310 285 245 220 280 274 198 224 212 191 208 220 121 172 169 204 204 145 235 211 225 262 291 204 230 183 234 213 216 185 178 198 200 206 212 204 194 192 195 197 197 194 196 198 196 194 195 194 192 192 191 190 188 188 186 184 185 188 189 189 190 191 189 189 190 191 190 190 191 193 193 195 198 200 201 196 190 197 201 199 200 205 200 195 192
315 281 302 287 45 326 318 184 211 213 218 216 115 177 169 147 213 171 204 167 132 250 197 277 302 227 208 215 193 199 207 180 182 190 201 207 206 200 197 196 194 192 192 193 193 194 195 196 196 195 191 189 188 187 187 183 183 186 188 187 191 194 191 188 189 188 190 192 191 191 191 195 196 197 198 196 191 194 201 202 200 204 201 203 196 199
295 355 274 291 335 316 240 183 210 203 195 208 198 195 187 206 209 154 184 159 202 187 196 198 258 264 250 220 182 201 211 203 167 183 197 203 206 200 194 195 194 192 191 191 191 194 196 196 196 197 195 190 186 184 181 182 186 187 186 189 190 190 189 191 191 189 192 189 193 190 191 193 194 198 197 195 195 199 203 202 202 204 206 187 202 196
300 357 296 307 335 305 261 250 60 353 246 220 208 212 197 178 137 184 235 51 120 148 222 158 257 270 261 199 197 198 211 210 182 180 191 201 205 201 198 195 191 191 194 192 193 194 193 192 193 194 190 183 181 182 184 185 186 186 188 189 188 189 190 190 190 191 191 190 192 193 193 194 195 196 194 196 197 202 201 202 203 203 191 197 203 193
314 264 296 293 245 267 263 271 306 294 277 264 242 224 202 190 145 173 207 230 178 225 130 157 277 261 231 205 196 197 203 215 194 183 195 201 198 199 200 197 193 191 190 193 193 193 190 189 188 187 185 186 187 185 184 183 187 188 189 187 187 188 191 190 191 191 189 189 190 196 195 192 194 193 195 197 199 203 201 203 205 198 200 205 202 200
316 12 306 291 294 261 261 258 260 248 244 281 258 232 190 203 200 213 203 178 183 210 220 264 262 267 283 219 231 233 227 218 183 179 195 207 202 201 198 194 192 194 197 193 190 189 188 185 181 179 183 186 187 186 186 187 187 188 188 187 186 190 189 189 190 189 188 190 193 194 192 193 193 193 195 199 202 203 203 203 203 198 204 207 205 205
359 299 62 311 339 317 290 271 246 29 40 13 336 301 228 211 209 194 85 145 197 203 191 171 242 260 265 341 271 320 279 250 213 194 201 203 200 198 201 195 188 191 191 189 187 187 182 175 176 183 186 187 189 189 186 186 188 188 187 186 187 191 188 188 187 188 189 190 193 192 192 193 192 195 197 200 201 204 203 204 203 199 204 204 208 211
261 284 30 342 288 222 212 207 188 345 335 308 262 289 306 232 199 150 190 181 206 235 167 199 240 253 274 298 295 284 295 280 252 215 212 206 193 196 195 189 188 187 190 187 184 176 175 178 184 187 185 186 189 189 187 187 187 187 186 188 188 186 184 187 186 189 189 191 192 191 192 194 194 197 199 200 201 203 202 202 202 200 205 204 209 211
215 263 210 203 207 255 302 300 268 289 312 291 294 306 293 302 262 194 121 158 206 195 188 222 223 263 276 269 269 269 238 272 278 194 205 207 205 194 186 184 183 186 187 185 180 179 177 178 185 187 185 187 189 189 187 186 186 185 185 186 187 185 184 185 185 188 190 191 193 191 194 194 196 198 199 200 202 201 201 203 202 202 205 204 209 210
343 304 249 231 241 252 264 276 288 290 274 268 269 279 284 282 282 228 187 212 147 116 224 243 194 225 252 257 256 258 280 285 264 226 208 200 190 187 187 183 181 183 183 180 177 174 177 183 186 184 185 187 189 188 187 186 186 185 184 186 185 183 183 183 185 187 190 191 194 196 197 197 197 198 199 199 200 202 203 204 204 205 207 204 208 212
234 244 304 276 273 280 278 277 275 272 253 258 264 264 276 277 275 249 217 180 144 198 217 223 190 211 245 249 251 252 238 248 232 214 205 197 187 183 177 178 181 182 176 174 179 179 181 184 185 184 185 187 186 185 186 185 186 183 184 185 185 185 187 182 184 187 189 191 195 198 197 197 197 198 197 197 198 202 204 205 207 207 207 208 210 212
313 248 255 294 298 292 275 261 256 249 258 261 262 264 257 258 257 248 239 170 178 205 200 191 188 217 235 246 253 266 244 239 229 243 278 217 184 180 177 179 182 180 175 177 181 183 185 186 184 184 184 184 184 186 185 186 186 187 186 187 186 187 185 179 186 187 190 194 196 196 195 195 195 196 195 196 199 202 203 205 206 207 210 211 212 214
12 267 332 327 318 297 286 275 266 295 293 288 271 316 312 276 245 239 226 196 180 213 227 212 198 232 253 267 273 294 302 296 164 163 207 197 186 180 177 179 182 182 179 181 180 182 186 186 186 184 182 183 185 186 187 189 188 187 189 189 187 188 184 181 184 188 191 195 194 194 193 193 196 194 197 199 200 200 201 203 204 208 210 211 212 214
291 266 340 355 342 298 303 333 324 326 310 255 309 356 348 338 284 204 177 309 174 188 194 145 210 251 272 287 249 13 38 13 349 261 236 216 190 180 177 178 180 180 180 182 182 184 185 184 179 179 183 185 186 187 188 187 186 186 194 190 189 186 180 183 185 188 191 193 192 193 192 193 192 195 198 197 202 201 201 202 204 207 209 210 212 214
235 297 343 345 324 256 290 325 317 308 312 337 11 7 328 344 44 90 63 33 18 264 156 192 231 226 269 286 114 22 52 20 14 3 307 287 233 187 182 181 181 180 180 180 182 183 179 179 181 183 185 183 185 188 190 185 184 191 192 189 188 179 181 184 184 186 191 193 193 193 191 191 193 195 196 198 200 201 199 202 204 207 207 211 211 210
256 280 270 17 262 284 312 313 301 354 153 244 177 36 347 21 24 55 35 12 354 19 243 230 254 283 298 343 309 95 70 62 48 14 28 200 222 219 204 188 181 179 178 179 181 180 182 181 181 182 181 182 187 191 188 185 188 192 188 184 178 182 183 182 185 187 193 193 192 191 191 191 193 195 197 196 199 200 201 202 206 206 207 208 207 211
254 279 275 187 262 288 308 316 104 141 199 143 96 45 360 338 14 52 68 33 16 11 7 359 349 351 44 53 36 104 110 99 62 42 26 16 28 117 151 131 150 166 172 175 177 180 178 178 176 172 176 186 187 182 175 187 190 166 167 176 182 185 182 185 186 190 193 193 193 191 191 191 193 195 196 197 197 199 202 204 206 205 205 205 208 212
235 242 276 249 237 304 316 339 164 189 278 328 121 5 0 357 27 346 28 20 17 12 0 353 331 341 65 66 56 5 83 87 60 40 26 23 25 41 78 84 107 115 122 138 139 146 151 161 170 174 180 172 162 169 177 180 170 170 181 178 181 183 186 186 188 192 191 192 192 192 192 191 193 196 196 196 197 199 203 204 204 205 203 206 211 215
222 243 253 289 208 215 299 305 252 311 338 4 6 359 352 339 333 348 350 11 6 0 1 347 340 340 340 318 313 243 303 51 54 36 12 20 25 37 64 63 80 94 98 99 109 113 116 122 124 127 121 133 152 156 165 152 160 169 167 174 183 181 186 185 190 193 191 192 192 193 193 192 193 196 197 196 197 200 203 204 205 206 202 206 211 213
199 201 203 162 280 56 0 326 335 58 203 287 326 292 271 258 277 277 267 5 1 0 358 358 355 337 344 346 317 309 302 57 40 30 3 12 19 37 51 59 65 74 83 94 92 91 96 97 99 104 118 122 130 152 151 152 160 163 169 179 178 179 186 188 194 193 191 194 193 194 194 194 194 196 197 195 198 200 204 205 205 205 200 205 207 212
200 214 250 254 271 335 322 288 261 265 244 38 326 315 310 307 277 305 227 49 357 351 354 350 357 355 355 355 337 339 108 75 50 37 4 11 26 31 49 48 58 65 69 72 90 95 89 90 95 94 88 88 83 63 166 164 164 164 174 175 179 183 189 195 196 193 192 194 196 196 195 195 196 198 197 197 199 200 203 203 203 204 201 206 208 213
198 214 222 228 252 219 244 284 279 246 288 322 320 319 314 310 320 202 110 41 346 336 350 349 360 6 360 5 4 46 80 107 90 36 9 17 32 36 45 43 42 54 63 70 69 82 90 91 83 71 71 69 58 54 109 145 155 166 171 177 178 188 198 200 198 197 195 195 196 196 196 195 196 198 198 199 201 202 204 205 204 204 203 206 208 212
190 231 204 224 225 245 240 262 301 339 299 315 320 312 310 307 290 73 76 0 324 334 352 358 7 10 8 22 10 69 49 65 74 61 38 30 36 36 38 41 43 44 59 64 72 77 78 76 80 83 79 77 66 55 69 109 121 137 152 158 177 202 209 204 196 200 198 198 197 197 197 197 196 198 200 200 200 201 203 202 203 203 202 205 206 210
206 246 214 170 239 237 214 182 220 202 231 322 328 320 323 336 53 55 23 345 321 330 350 9 13 5 1 15 30 56 69 66 60 53 45 35 36 33 33 37 39 41 46 54 64 72 84 82 81 78 70 62 61 60 65 79 83 87 93 102 119 263 278 242 207 182 179 188 197 199 199 199 200 200 201 201 199 199 204 205 204 204 203 204 204 207
190 169 275 176 268 318 229 253 21 1 319 7 321 335 15 43 42 347 319 342 329 343 358 11 18 8 3 12 9 39 52 51 47 46 45 37 34 32 29 31 33 35 34 36 52 56 77 80 75 72 72 63 62 60 63 74 76 73 72 64 16 296 282 242 216 205 190 188 191 197 199 200 198 199 200 201 198 198 202 202 202 204 201 202 205 206
357 43 5 335 322 308 4 45 33 316 305 348 352 44 41 50 342 354 357 335 346 354 2 6 10 9 6 19 9 28 40 46 40 35 40 37 31 28 31 32 30 26 33 36 43 49 65 78 76 73 67 65 64 65 63 70 72 69 61 30 324 316 300 287 226 197 198 198 196 193 195 196 198 199 201 199 197 198 200 201 201 201 200 200 202 203
2 41 356 311 303 4 331 40 347 345 54 22 26 37 29 23 16 24 17 3 348 349 346 5 3 1 10 8 24 22 31 31 38 32 39 30 29 25 27 27 28 26 23 29 34 34 45 66 74 73 65 57 57 55 58 61 67 54 37 352 349 346 339 323 236 189 201 204 202 199 198 192 192 195 195 197 194 198 201 201 195 201 202 197 202 204
327 16 348 301 344 313 358 52 40 14 27 44 40 40 25 4 18 28 26 1 347 342 347 350 352 0 6 9 18 19 26 17 25 22 26 25 26 20 20 20 20 20 21 21 22 28 40 48 57 63 62 50 45 53 55 54 60 55 11 334 360 351 336 329 313 182 205 206 209 209 193 189 194 191 191 189 192 199 198 195 192 197 197 195 202 201
322 7 7 14 334 346 13 352 31 342 336 57 58 45 36 10 359 0 11 23 345 339 345 346 347 1 10 14 12 8 8 8 21 24 22 20 20 18 15 16 13 16 17 17 6 14 34 44 48 52 57 52 32 41 42 48 50 49 14 13 359 4 348 336 308 230 199 198 194 192 191 191 186 183 183 184 190 197 197 196 195 197 194 195 197 198
334 349 11 356 330 266 276 321 322 311 310 123 104 57 42 20 350 0 345 350 341 326 338 340 342 8 10 14 7 0 360 2 8 5 10 19 21 11 8 8 6 6 6 11 12 15 36 47 51 54 55 52 31 37 40 41 38 22 15 9 12 1 6 6 347 237 230 194 180 179 184 188 185 175 173 160 162 178 190 189 196 195 191 190 188 189
329 337 10 340 304 276 283 263 352 328 353 159 110 89 53 41 6 344 341 333 334 348 342 344 353 359 8 9 359 6 358 353 358 358 2 357 3 10 3 356 357 1 1 8 359 9 12 34 54 51 60 41 33 48 41 30 15 14 16 2 9 8 26 13 352 43 67 146 156 176 183 180 173 151 123 93 82 64 45 11 354 235 181 143 188 199
350 20 347 333 318 287 245 47 23 355 305 280 156 75 52 34 21 347 329 325 326 342 344 353 348 351 357 4 8 358 2 338 344 352 360 353 352 353 355 353 351 354 358 356 359 9 3 355 29 51 45 23 28 41 41 23 5 353 357 351 7 26 41 24 4 12 31 68 154 164 144 126 113 114 122 124 118 107 75 61 68 42 17 84 339 350
358 354 339 310 291 282 302 318 315 292 277 268 282 324 52 26 6 338 316 314 313 316 345 355 357 352 346 342 5 2 346 341 326 339 354 356 344 340 352 356 347 345 345 352 3 6 4 341 331 66 41 10 23 50 51 34 5 357 350 351 351 34 62 55 28 359 46 90 139 161 137 130 125 128 126 132 127 121 116 103 51 43 43 49 47 50